Flag for Canada Weather past 2 weeks in Whitehorse, Yukon Territory, Canada

Now
-6 °F

Passing clouds.


Feels Like: -21 °F
Forecast: -16 / -2 °F
Wind: 8 mph from North

Location: Withehorse

Current Time: Jan 26, 2015 at 8:17:39 PM

Latest Report: Jan 26, 2015 at 7:00 PM


Visibility: 15 mi

Pressure: 30.19 "Hg

Humidity: 59%

Dew point: -17 °F

Location of WhitehorseLocation

Historic Weather in Whitehorse — Graph

°F

Whitehorse temperature yesterday

Maximum temperature yesterday: 34 °F (at 12:00 PM)
Minimum temperature yesterday: 5 °F (at 11:00 PM)
Average temperature yesterday: 27 °F

Past Weeks' High & Low Weather Summary

 TemperatureHumidityPressure
High41 °F (Jan 13, 5:00 PM)100% (Jan 18, 9:00 AM)30.18 "Hg (Jan 18, 9:00 AM)
Low-6 °F (Jan 26, 5:00 PM)37% (Jan 25, 6:00 PM)29.06 "Hg (Jan 15, 8:00 PM)
Average27 °F84%29.62 "Hg
* Reported Jan 11 6:00 PM — Jan 26 6:00 PM, Whitehorse, Weather by CustomWeather, © 2014

Note: Actual official high and low records may vary slightly from our data, if they occured in-between our weather recording intervals... More about our weather records

Advertising

Whitehorse weather history for previous 24 hours

 ConditionsComfort  
Time TempWeatherWind HumidityBarometerVisibility
6:00 PM
Jan 26
-6 °FPassing clouds.7 mph59%30.18 "Hg40 mi
5:00 PM-6 °FPassing clouds.9 mph64%30.18 "Hg40 mi
4:00 PM-2 °FPassing clouds.10 mph54%30.17 "Hg40 mi
3:00 PM-2 °FPassing clouds.10 mph59%30.16 "Hg40 mi
2:00 PM-2 °FPassing clouds.12 mph59%30.15 "Hg40 mi
1:00 PM-2 °FPassing clouds.7 mph59%30.14 "Hg40 mi
12:00 PM-2 °FLight snow. Passing clouds.9 mph59%30.14 "Hg40 mi
11:00 AM-4 °FPassing clouds.8 mph71%30.14 "Hg40 mi
10:00 AM-4 °FPassing clouds.8 mph65%30.12 "Hg40 mi
9:46 AM-4 °FPassing clouds.8 mph65%30.11 "Hg40 mi
9:00 AM-4 °FLight snow. Passing clouds.9 mph71%30.11 "Hg40 mi
8:00 AM-2 °FLight snow. Passing clouds.7 mph65%30.06 "Hg40 mi
7:00 AM-2 °FLight snow. Mostly cloudy.6 mph65%30.04 "Hg15 mi
6:00 AM-2 °FPassing clouds.13 mph65%30.01 "Hg15 mi
5:00 AM0 °FPassing clouds.10 mph60%29.99 "Hg15 mi
4:00 AM0 °FPassing clouds.7 mph65%29.96 "Hg15 mi
3:00 AM0 °FClear.9 mph65%29.93 "Hg15 mi
2:00 AM1 °FClear.10 mph65%29.90 "Hg15 mi
1:00 AM1 °FClear.10 mph78%29.85 "Hg15 mi
12:00 AM3 °FClear.8 mph78%29.83 "Hg15 mi
11:00 PM
Jan 25
5 °FClear.9 mph78%29.78 "Hg15 mi
10:00 PM9 °FClear.10 mph72%29.74 "Hg15 mi
9:00 PM12 °FClear.15 mph67%29.67 "Hg15 mi
8:50 PM14 °FPassing clouds.14 mph67%29.66 "Hg15 mi
8:00 PM30 °FPassing clouds.12 mph40%29.59 "Hg15 mi
Weather by CustomWeather, © 2014

See weather overviewHow to use our weather pages